Fitchburg, MA

8:14 AM EDT on March 28, 2017 (GMT -0400)
Fitchburg Municipal

Weather History for KFIT - January, 2014

Change the Weather History Date:

Tuesday, January 14, 2014

  Actual Average (KORH) Record (KORH)
Temperature  
Mean Temperature 42 °F -  
Max Temperature 48 °F 29 °F 66 °F (1932)
Min Temperature 37 °F 13 °F -12 °F (1988)
Degree Days  
Heating Degree Days 22    
Moisture  
Dew Point 41 °F    
Average Humidity 91    
Maximum Humidity 100    
Minimum Humidity 66    
Precipitation  
Precipitation 0.57 in - - ()
Sea Level Pressure  
Sea Level Pressure 29.73 in    
Wind  
Wind Speed 4 mph (West)    
Max Wind Speed 12 mph    
Max Gust Speed 20 mph    
Visibility 5 miles    
Events Fog , Rain    
Averages and records for this station are not official NWS values.
T = Trace of Precipitation, MM = Missing Value Source: NWS Daily Summary

Daily Weather History Graph

Daily Weather History Graph

Search for Another Location

Airport or City:

Trip Planner

Search our weather history database for the weather conditions in past years. The results will help you decide how hot, cold, wet, or windy it might be!

Date:

Astronomy

Jan. 14, 2014 Rise Set
Actual Time 7:14 AM EST 4:38 PM EST
Civil Twilight 6:43 AM EST 5:09 PM EST
Nautical Twilight 6:08 AM EST 5:44 PM EST
Astronomical Twilight 5:34 AM EST 6:17 PM EST
Moon 3:41 PM EST (1/14) 5:46 AM EST (1/14)
Length of Visible Light 10h 25m
Length of Day
9h 23m
Waxing Gibbous, 98% of the Moon is Illuminated
Jan 14
Waxing Gibbous
Jan 15
Full
Jan 24
Last Quarter
Jan 30
New
Feb 6
First Quarter

Hourly Weather History & Observations

Time (EST) Temp. Windchill Dew Point Humidity Pressure Visibility Wind Dir Wind Speed Gust Speed Precip Events Conditions
12:52 AM 46.9 °F - 36.0 °F 66% 29.87 in 10.0 mi South 4.6 mph - N/A   Clear
1:52 AM 46.0 °F 43.9 °F 36.0 °F 68% 29.86 in 10.0 mi SSE 4.6 mph - N/A   Clear
2:52 AM 42.1 °F 40.2 °F 35.1 °F 76% 29.84 in 10.0 mi ESE 3.5 mph - N/A   Clear
3:52 AM 37.9 °F 35.5 °F 35.1 °F 89% 29.83 in 10.0 mi SE 3.5 mph - N/A   Clear
4:52 AM 39.9 °F 37.8 °F 36.0 °F 86% 29.82 in 10.0 mi South 3.5 mph - N/A   Partly Cloudy
5:52 AM 45.0 °F 42.6 °F 39.0 °F 80% 29.82 in 10.0 mi SE 4.6 mph - N/A   Overcast
6:52 AM 45.0 °F 40.6 °F 39.0 °F 80% 29.83 in 10.0 mi SSE 8.1 mph - 0.00 in Rain Light Rain
7:52 AM 48.0 °F - 39.9 °F 74% 29.82 in 10.0 mi SSW 6.9 mph - 0.00 in   Overcast
8:52 AM 46.0 °F 43.1 °F 39.9 °F 79% 29.82 in 10.0 mi SE 5.8 mph - 0.00 in Rain Light Rain
9:52 AM 46.0 °F 44.8 °F 42.1 °F 86% 29.82 in 6.0 mi SSE 3.5 mph - 0.02 in Rain Light Rain
10:13 AM 46.0 °F 43.1 °F 43.0 °F 89% 29.82 in 8.0 mi SSE 5.8 mph - 0.01 in Rain Light Rain
10:52 AM 46.0 °F 41.9 °F 43.0 °F 89% 29.81 in 9.0 mi SSE 8.1 mph - 0.03 in Rain Light Rain
11:22 AM 46.0 °F 43.1 °F 43.0 °F 89% 29.77 in 10.0 mi South 5.8 mph - 0.00 in Rain Light Rain
11:52 AM 46.0 °F - 43.0 °F 89% 29.77 in 10.0 mi Calm Calm - 0.00 in Rain Light Rain
12:22 PM 46.0 °F 44.8 °F 44.1 °F 93% 29.76 in 4.0 mi SSE 3.5 mph - 0.04 in Rain Light Rain
12:52 PM 45.0 °F 43.5 °F 43.0 °F 93% 29.75 in 5.0 mi ESE 3.5 mph - 0.07 in Rain Light Rain
1:16 PM 45.0 °F 43.5 °F 44.1 °F 97% 29.73 in 4.0 mi SE 3.5 mph - 0.02 in Rain Light Rain
1:52 PM 46.0 °F - 44.1 °F 93% 29.73 in 3.0 mi Calm Calm - 0.06 in Rain Light Rain
2:05 PM 45.0 °F - 44.1 °F 97% 29.71 in 2.5 mi Calm Calm - 0.01 in Rain Light Rain
2:08 PM 45.0 °F - 44.1 °F 97% 29.71 in 1.0 mi Calm Calm - 0.01 in Rain Light Rain
2:10 PM 45.0 °F - 43.0 °F 93% 29.71 in 0.5 mi Calm Calm - 0.02 in Fog , Rain Light Rain
2:43 PM 44.1 °F - 43.0 °F 96% 29.70 in 0.5 mi Calm Calm - 0.04 in Fog , Rain Light Rain
2:47 PM 42.8 °F - 42.8 °F 100% 29.70 in 0.2 mi Calm Calm - 0.04 in Fog , Rain Light Rain
2:52 PM 43.0 °F - 43.0 °F 100% 29.70 in 0.2 mi Calm Calm - 0.04 in Fog , Rain Light Rain
3:13 PM 44.1 °F - 43.0 °F 96% 29.69 in 0.2 mi Calm Calm - 0.01 in Fog , Rain Light Rain
3:24 PM 44.1 °F - 43.0 °F 96% 29.68 in 0.2 mi Calm Calm - 0.02 in Fog , Rain Light Rain
3:31 PM 43.0 °F - 43.0 °F 100% 29.69 in 0.5 mi Calm Calm - 0.03 in Fog , Rain Light Rain
3:52 PM 43.0 °F - 42.1 °F 97% 29.69 in 0.2 mi Calm Calm - 0.04 in Fog , Rain Light Rain
4:12 PM 42.1 °F - 42.1 °F 100% 29.67 in 0.2 mi Calm Calm - 0.02 in Fog , Rain Light Rain
4:39 PM 42.1 °F 39.2 °F 41.0 °F 96% 29.67 in 0.5 mi NNW 4.6 mph - 0.06 in Fog , Rain Rain
4:52 PM 42.1 °F 39.2 °F 41.0 °F 96% 29.68 in 0.5 mi NNW 4.6 mph - 0.08 in Fog , Rain Light Rain
5:18 PM 43.0 °F - 41.0 °F 93% 29.66 in 0.8 mi Calm Calm - 0.03 in Rain Light Rain
5:27 PM 42.1 °F 38.4 °F 41.0 °F 96% 29.66 in 1.2 mi North 5.8 mph - 0.04 in Rain Rain
5:34 PM 43.0 °F 41.3 °F 41.0 °F 93% 29.68 in 3.0 mi NNW 3.5 mph - 0.05 in Rain Rain
5:41 PM 42.1 °F 39.2 °F 41.0 °F 96% 29.67 in 2.0 mi North 4.6 mph - 0.07 in Rain Rain
5:52 PM 43.0 °F 40.3 °F 42.1 °F 97% 29.68 in 4.0 mi NNW 4.6 mph - 0.09 in Rain Rain
5:58 PM 41.0 °F 38.0 °F 41.0 °F 100% 29.65 in 1.8 mi NNW 4.6 mph - 0.00 in Rain Light Rain
6:08 PM 43.0 °F 40.3 °F 41.0 °F 93% 29.65 in 4.0 mi NNW 4.6 mph - 0.00 in Rain Light Rain
6:52 PM 41.0 °F 39.0 °F 39.9 °F 96% 29.67 in 4.0 mi NW 3.5 mph - 0.02 in Rain Light Rain
7:52 PM 42.1 °F 40.2 °F 41.0 °F 96% 29.67 in 8.0 mi North 3.5 mph - 0.11 in Rain Light Rain
8:41 PM 39.9 °F - 39.0 °F 97% 29.66 in 1.8 mi Calm Calm - 0.00 in Rain Light Rain
8:46 PM 39.2 °F - 37.4 °F 93% 29.66 in 0.8 mi Calm Calm - 0.00 in Rain Light Rain
8:52 PM 39.0 °F - 37.9 °F 96% 29.66 in 0.5 mi Calm Calm - 0.00 in Fog , Rain Light Rain
9:01 PM 41.0 °F 39.0 °F 39.0 °F 93% 29.63 in 1.5 mi North 3.5 mph - 0.00 in Rain Light Rain
9:08 PM 37.9 °F - 37.9 °F 100% 29.63 in 0.8 mi Calm Calm - 0.00 in Rain Light Rain
9:21 PM 37.9 °F 33.5 °F 37.0 °F 97% 29.66 in 1.2 mi West 5.8 mph - 0.00 in   Overcast
9:27 PM 39.9 °F 35.1 °F 39.0 °F 97% 29.68 in 3.0 mi West 6.9 mph - 0.00 in   Overcast
9:52 PM 42.1 °F 36.1 °F 39.0 °F 89% 29.72 in 10.0 mi WNW 10.4 mph - 0.00 in   Overcast
10:27 PM 42.1 °F 37.7 °F 39.0 °F 89% 29.73 in 10.0 mi WNW 6.9 mph - 0.00 in   Overcast
10:35 PM 42.1 °F 37.1 °F 39.0 °F 89% 29.73 in 10.0 mi WNW 8.1 mph - 0.00 in   Overcast
10:52 PM 42.1 °F 35.7 °F 39.0 °F 89% 29.74 in 10.0 mi WNW 11.5 mph 19.6 mph 0.01 in Rain Light Rain
11:52 PM 42.1 °F 36.6 °F 37.9 °F 85% 29.76 in 10.0 mi WNW 9.2 mph 19.6 mph 0.00 in   Clear